period_start,C,m1,H,J0,J1,J2,J3,J4,J5,JA,JB,JC,JD,JJ,JK,JN,#
2015-12-29 00:00:49,0.08,1.50,0.00,18.15,21.50,25.36,14.86,50.67,1022.46,2055.98,2998.01,2744.91,3070.53,600.07,609.51,16.79,0000 0000 0000 0000 000000
2015-12-29 00:05:51,0.08,1.51,0.00,18.14,21.49,25.31,14.93,50.79,1022.48,2055.97,2996.53,2743.83,3069.47,600.34,609.86,16.84,0000 0000 0000 0000 000000
2015-12-29 00:10:52,0.09,1.51,0.00,18.14,21.49,25.34,14.89,50.73,1022.48,2055.97,2994.80,2742.67,3068.03,600.17,609.64,16.89,0000 0000 0000 0000 000000
2015-12-29 00:15:53,0.09,1.51,0.00,18.14,21.49,25.34,14.92,50.81,1022.48,2055.97,2993.31,2741.59,3066.77,600.14,609.61,16.94,0000 0000 0000 0000 000000
2015-12-29 00:20:54,0.08,1.52,0.00,18.14,21.49,25.37,14.95,50.71,1022.48,2055.98,2991.85,2740.61,3065.63,600.21,609.72,16.99,0000 0000 0000 0000 000000
2015-12-29 00:25:55,0.08,1.52,0.00,18.14,21.49,25.35,14.91,50.65,1022.48,2055.99,2990.33,2739.51,3064.38,600.10,609.56,17.04,0000 0000 0000 0000 000000
2015-12-29 00:30:57,0.08,1.53,0.00,18.16,21.49,25.35,14.93,50.78,1022.47,2055.99,2988.74,2738.36,3063.04,600.11,609.57,17.09,0000 0000 0000 0000 000000
2015-12-29 00:35:58,0.08,1.53,0.00,18.16,21.49,25.34,14.93,50.72,1022.48,2055.98,2987.38,2737.28,3061.66,600.19,609.63,17.14,0000 0000 0000 0000 000000
2015-12-29 00:40:59,0.08,1.54,0.00,18.17,21.49,25.32,14.83,50.74,1022.48,2055.99,2985.86,2736.30,3060.52,600.04,609.46,17.19,0000 0000 0000 0000 000000
2015-12-29 00:46:00,0.08,1.54,0.00,18.17,21.49,25.34,14.97,50.83,1022.48,2055.99,2984.46,2735.22,3059.37,600.38,609.71,17.24,0000 0000 0000 0000 000000
2015-12-29 00:51:02,0.07,1.54,0.00,18.18,21.49,25.32,14.94,50.74,1022.45,2055.98,2982.99,2734.17,3058.10,599.89,609.26,17.29,0000 0000 0000 0000 000000
2015-12-29 00:56:03,0.08,1.55,0.00,18.17,21.49,25.32,14.90,50.79,1022.34,2055.98,2981.53,2733.13,3056.85,599.85,609.17,17.34,0000 0000 0000 0000 000000
2015-12-29 01:01:04,0.08,1.55,0.00,18.18,21.49,25.32,14.86,50.78,1022.04,2055.99,2979.97,2732.06,3055.72,599.62,608.77,17.39,0000 0000 0000 0000 000000
2015-12-29 01:06:05,0.08,1.56,0.00,18.17,21.49,25.29,14.86,50.89,1022.27,2055.99,2978.59,2731.02,3054.55,600.04,609.24,17.44,0000 0000 0000 0000 000000
2015-12-29 01:11:06,0.07,1.56,0.00,18.19,21.49,25.28,14.84,50.88,1022.09,2055.98,2977.08,2729.99,3053.37,600.02,609.08,17.49,0000 0000 0000 0000 000000
2015-12-29 01:16:08,0.08,1.57,0.00,18.20,21.50,25.32,14.87,50.90,1022.10,2055.99,2975.64,2728.97,3052.13,599.85,609.04,17.54,0000 0000 0000 0000 000000
2015-12-29 01:21:09,1.97,1.62,0.00,18.20,21.50,25.32,14.94,50.96,1022.25,2055.97,2950.00,2711.97,3033.77,600.36,609.68,17.59,0000 0000 0000 0000 000000
2015-12-29 01:26:10,0.23,1.67,0.00,18.21,21.52,25.37,14.88,50.95,1022.25,2055.97,2934.97,2701.96,3023.01,599.83,608.99,17.64,0000 0000 0000 0000 000000
2015-12-29 01:31:12,0.08,1.68,0.00,18.22,21.52,25.36,14.88,50.90,1022.13,2055.97,2933.40,2700.79,3021.63,600.03,609.14,17.69,0000 0000 0000 0000 000000
2015-12-29 01:36:13,0.08,1.68,0.00,18.22,21.52,25.28,14.85,50.84,1022.03,2055.97,2931.91,2699.68,3020.38,599.75,608.88,17.74,0000 0000 0000 0000 000000
2015-12-29 01:41:14,0.08,1.69,0.00,18.21,21.53,25.36,14.92,50.94,1021.99,2055.94,2930.42,2698.58,3019.03,600.11,609.02,17.79,0000 0000 0000 0000 000000
2015-12-29 01:46:16,0.08,1.69,0.00,18.22,21.54,25.34,14.94,51.05,1022.00,2055.90,2928.93,2697.52,3017.75,600.18,609.27,17.84,0000 0000 0000 0000 000000
2015-12-29 01:51:17,0.09,1.70,0.00,18.23,21.54,25.40,14.95,51.06,1021.99,2055.90,2927.52,2696.50,3016.60,600.40,609.41,17.89,0000 0000 0000 0000 000000
2015-12-29 01:56:19,0.07,1.70,0.00,18.23,21.54,25.38,14.91,51.14,1021.99,2055.91,2926.00,2695.45,3015.45,600.06,609.04,17.94,0000 0000 0000 0000 000000
2015-12-29 02:01:20,0.07,1.70,0.00,18.23,21.56,25.32,14.95,50.98,1021.99,2055.89,2924.61,2694.41,3014.21,600.55,609.44,17.99,0000 0000 0000 0000 000000
2015-12-29 02:06:21,0.08,1.71,0.00,18.25,21.57,25.34,14.84,51.02,1021.99,2055.84,2923.14,2693.31,3012.97,599.95,608.91,18.04,0000 0000 0000 0000 000000
2015-12-29 02:11:22,0.07,1.71,0.00,18.25,21.57,25.38,14.84,51.00,1021.99,2055.76,2921.65,2692.30,3011.82,599.58,608.53,18.09,0000 0000 0000 0000 000000
2015-12-29 02:16:24,0.05,1.72,0.00,18.26,21.59,25.39,14.89,51.02,1021.99,2055.59,2920.41,2691.33,3010.63,599.77,608.75,18.14,0000 0000 0000 0000 000000
2015-12-29 02:21:24,0.09,1.72,0.00,18.28,21.59,25.41,14.93,51.06,1021.99,2055.62,2919.07,2690.32,3009.53,600.14,609.01,18.19,0000 0000 0000 0000 000000
2015-12-29 02:26:26,0.05,1.72,0.00,18.29,21.60,25.41,14.86,51.08,1021.97,2055.22,2917.53,2689.35,3008.40,599.72,608.60,18.24,0000 0000 0000 0000 000000
2015-12-29 02:31:27,0.08,1.73,0.00,18.31,21.61,25.39,14.82,50.99,1021.79,2055.26,2916.24,2688.44,3007.40,600.06,608.76,18.29,0000 0000 0000 0000 000000
2015-12-29 02:36:28,0.06,1.73,0.00,18.32,21.62,25.38,14.81,50.93,1021.87,2055.18,2914.95,2687.52,3006.37,599.74,608.51,18.34,0000 0000 0000 0000 000000
2015-12-29 02:41:29,0.07,1.73,0.00,18.31,21.62,25.42,14.83,51.02,1021.87,2055.06,2913.51,2686.62,3005.25,599.86,608.65,18.39,0000 0000 0000 0000 000000
2015-12-29 02:46:31,0.06,1.74,0.00,18.31,21.64,25.40,14.87,51.14,1021.73,2055.10,2912.43,2685.81,3004.30,599.74,608.42,18.44,0000 0000 0000 0000 000000
2015-12-29 02:51:32,0.07,1.74,0.00,18.34,21.64,25.43,14.87,51.25,1021.53,2055.05,2911.02,2684.84,3003.20,599.76,608.25,18.49,0000 0000 0000 0000 000000
2015-12-29 02:56:34,0.06,1.74,0.00,18.33,21.66,25.43,14.79,51.21,1021.50,2055.05,2909.73,2683.99,3002.42,599.81,608.29,18.54,0000 0000 0000 0000 000000
2015-12-29 03:01:35,0.10,1.75,0.00,18.33,21.67,25.45,14.83,51.35,1021.50,2055.07,2908.04,2682.91,3001.20,599.97,608.58,18.59,0000 0000 0000 0000 000000
2015-12-29 03:06:36,0.06,1.75,0.00,18.33,21.67,25.44,14.87,51.43,1021.50,2055.05,2906.80,2682.00,3000.07,599.74,608.21,18.64,0000 0000 0000 0000 000000
2015-12-29 03:11:38,0.09,1.76,0.00,18.33,21.68,25.46,15.07,51.43,1021.51,2055.09,2905.35,2681.03,2999.16,600.56,609.06,18.69,0000 0000 0000 0000 000000
2015-12-29 03:16:39,0.09,1.76,0.00,18.34,21.69,25.52,14.86,51.21,1021.61,2055.10,2903.78,2679.86,2997.77,600.29,608.84,18.74,0000 0000 0000 0000 000000
2015-12-29 03:21:41,0.11,1.77,0.00,18.35,21.69,25.49,14.78,51.27,1021.55,2055.11,2902.03,2678.57,2996.40,599.90,608.31,18.79,0000 0000 0000 0000 000000
2015-12-29 03:26:42,0.08,1.77,0.00,18.37,21.71,25.48,14.91,51.38,1021.68,2055.05,2900.47,2677.39,2994.97,599.93,608.46,18.84,0000 0000 0000 0000 000000
2015-12-29 03:31:43,0.08,1.78,0.00,18.37,21.72,25.51,14.88,51.42,1021.83,2055.05,2899.03,2676.38,2993.75,599.97,608.66,18.89,0000 0000 0000 0000 000000
2015-12-29 03:36:44,0.09,1.78,0.00,18.39,21.72,25.49,14.88,51.42,1021.54,2055.03,2897.33,2675.19,2992.45,599.81,608.13,18.94,0000 0000 0000 0000 000000
2015-12-29 03:41:46,0.12,1.79,0.00,18.40,21.73,25.48,14.84,51.30,1021.51,2055.07,2895.41,2673.80,2990.83,600.05,608.40,18.99,0000 0000 0000 0000 000000
2015-12-29 03:46:47,0.12,1.79,0.00,18.39,21.74,25.54,14.97,51.63,1021.50,2055.06,2893.25,2672.08,2988.91,600.38,608.75,19.04,0000 0000 0000 0000 000000
2015-12-29 03:51:48,0.18,1.80,0.00,18.38,21.74,25.55,14.90,51.44,1021.36,2055.08,2890.56,2670.23,2986.77,599.98,608.28,19.09,0000 0000 0000 0000 000000
2015-12-29 03:56:49,0.13,1.81,0.00,18.41,21.75,25.53,14.90,51.59,1021.38,2055.11,2887.97,2668.37,2984.73,599.97,608.40,19.14,0000 0000 0000 0000 000000
2015-12-29 04:01:51,0.13,1.81,0.00,18.41,21.77,25.58,14.92,51.64,1021.48,2055.05,2885.78,2666.73,2982.90,600.18,608.52,19.19,0000 0000 0000 0000 000000
2015-12-29 04:06:52,0.11,1.82,0.00,18.40,21.77,25.61,14.76,51.39,1021.51,2055.05,2883.61,2665.18,2981.03,599.51,607.85,19.24,0000 0000 0000 0000 000000
2015-12-29 04:11:53,0.14,1.83,0.00,18.42,21.77,25.62,14.94,51.58,1021.50,2055.07,2881.39,2663.55,2979.12,599.92,608.19,19.29,0000 0000 0000 0000 000000
2015-12-29 04:16:54,0.13,1.83,0.00,18.44,21.77,25.55,14.87,51.61,1021.50,2055.07,2879.11,2661.84,2977.21,600.08,608.36,19.34,0000 0000 0000 0000 000000
2015-12-29 04:21:55,0.16,1.84,0.00,18.46,21.79,25.57,14.95,51.36,1021.52,2055.09,2876.51,2659.85,2974.97,600.21,608.33,19.40,0000 0000 0000 0000 000000
2015-12-29 04:26:57,0.15,1.85,0.00,18.47,21.79,25.55,14.77,51.25,1021.58,2055.05,2874.08,2657.94,2972.75,599.70,607.95,19.45,0000 0000 0000 0000 000000
2015-12-29 04:31:58,0.13,1.86,0.00,18.50,21.79,25.57,14.82,51.29,1021.55,2055.03,2871.67,2656.21,2970.71,599.99,608.20,19.50,0000 0000 0000 0000 000000
2015-12-29 04:37:00,0.15,1.86,0.00,18.52,21.80,25.61,14.82,51.19,1021.51,2055.02,2869.25,2654.30,2968.57,599.96,608.02,19.55,0000 0000 0000 0000 000000
2015-12-29 04:42:01,0.14,1.87,0.00,18.53,21.82,25.61,14.83,51.27,1021.47,2055.04,2866.79,2652.47,2966.47,600.30,608.44,19.60,0000 0000 0000 0000 000000
2015-12-29 04:47:03,0.15,1.88,0.00,18.52,21.82,25.57,14.82,51.17,1021.50,2055.03,2864.36,2650.64,2964.43,599.91,608.01,19.65,0000 0000 0000 0000 000000
2015-12-29 04:52:04,0.16,1.89,0.00,18.53,21.82,25.60,14.82,51.38,1021.51,2055.03,2861.68,2648.70,2962.21,599.89,608.00,19.70,0000 0000 0000 0000 000000
2015-12-29 04:57:05,0.14,1.90,0.00,18.55,21.83,25.60,14.88,51.52,1021.51,2055.01,2859.33,2646.88,2960.06,600.45,608.45,19.75,0000 0000 0000 0000 000000
2015-12-29 05:02:06,0.11,1.90,0.00,18.57,21.84,25.60,14.89,51.47,1021.52,2055.01,2857.35,2645.44,2958.35,599.90,607.94,19.80,0000 0000 0000 0000 000000
2015-12-29 05:07:07,0.11,1.91,0.00,18.60,21.84,25.56,14.90,51.41,1021.53,2055.00,2855.48,2644.01,2956.67,600.03,607.99,19.85,0000 0000 0000 0000 000000
2015-12-29 05:12:09,0.11,1.91,0.00,18.61,21.85,25.59,14.87,51.33,1021.52,2055.01,2853.66,2642.67,2955.14,599.93,607.85,19.90,0000 0000 0000 0000 000000
2015-12-29 05:17:10,0.13,1.92,0.00,18.60,21.86,25.61,14.90,51.56,1021.32,2055.00,2851.47,2641.15,2953.36,599.85,607.64,19.95,0000 0000 0000 0000 000000
2015-12-29 05:22:11,0.78,1.94,0.00,18.59,21.87,25.60,15.00,51.87,1020.83,2055.00,2844.39,2634.39,2945.86,600.39,607.96,20.00,0000 0000 0000 0000 000000
2015-12-29 05:27:13,0.53,1.99,0.00,18.58,21.87,25.63,14.89,51.87,1021.02,2055.00,2833.20,2623.28,2933.36,600.14,607.83,20.05,0000 0000 0000 0000 000000
2015-12-29 05:32:14,0.16,2.00,0.00,18.59,21.88,25.59,14.81,51.58,1021.44,2055.00,2830.26,2621.08,2930.74,599.87,607.78,20.10,0000 0000 0000 0000 000000
2015-12-29 05:37:15,0.14,2.00,0.00,18.61,21.89,25.66,14.91,51.62,1021.49,2054.99,2827.81,2619.27,2928.65,600.14,608.12,20.15,0000 0000 0000 0000 000000
2015-12-29 05:42:16,0.17,2.01,0.00,18.64,21.89,25.62,14.81,51.67,1021.31,2054.99,2825.03,2617.27,2926.40,599.78,607.61,20.20,0000 0000 0000 0000 000000
2015-12-29 05:47:18,0.17,2.02,0.00,18.66,21.89,25.64,14.80,51.68,1021.50,2054.99,2822.22,2615.17,2923.95,599.79,607.60,20.25,0000 0000 0000 0000 000000
2015-12-29 05:52:19,0.17,2.03,0.00,18.65,21.89,25.64,14.92,51.67,1021.50,2054.99,2819.51,2613.10,2921.61,600.02,608.00,20.30,0000 0000 0000 0000 000000
2015-12-29 05:57:21,0.15,2.04,0.00,18.65,21.91,25.70,14.88,51.50,1021.52,2054.99,2817.08,2611.25,2919.52,599.88,607.68,20.35,0000 0000 0000 0000 000000
2015-12-29 06:02:22,0.15,2.04,0.00,18.67,21.92,25.68,14.82,51.40,1021.51,2054.99,2814.80,2609.48,2917.44,600.31,608.11,20.40,0000 0000 0000 0000 000000
2015-12-29 06:07:23,0.16,2.05,0.00,18.69,21.92,25.64,14.85,51.35,1021.66,2054.99,2812.13,2607.58,2915.22,600.04,607.87,20.45,0000 0000 0000 0000 000000
2015-12-29 06:12:24,0.14,2.06,0.00,18.70,21.93,25.68,14.75,51.27,1021.95,2054.98,2809.77,2605.79,2913.22,599.58,607.57,20.50,0000 0000 0000 0000 000000
2015-12-29 06:17:25,0.14,2.07,0.00,18.74,21.94,25.62,14.86,51.29,1021.75,2054.96,2807.37,2604.02,2911.25,600.44,608.24,20.55,0000 0000 0000 0000 000000
2015-12-29 06:22:26,0.17,2.08,0.00,18.74,21.95,25.63,14.95,51.45,1021.65,2054.95,2804.73,2602.05,2909.03,600.08,607.69,20.60,0000 0000 0000 0000 000000
2015-12-29 06:27:28,0.13,2.09,0.00,18.75,21.97,25.64,14.73,51.39,1021.62,2054.85,2802.34,2600.23,2906.91,599.47,607.22,20.65,0000 0000 0000 0000 000000
2015-12-29 06:32:29,0.19,2.09,0.00,18.74,21.97,25.68,14.76,51.51,1021.69,2054.79,2799.76,2598.17,2904.57,599.84,607.62,20.70,0000 0000 0000 0000 000000
2015-12-29 06:37:30,0.16,2.10,0.00,18.75,21.99,25.70,14.84,51.51,1021.56,2054.72,2796.98,2595.79,2902.16,600.12,607.83,20.75,0000 0000 0000 0000 000000
2015-12-29 06:42:32,0.13,2.11,0.00,18.77,22.00,25.66,14.83,51.49,1021.90,2054.40,2794.31,2593.76,2899.79,599.94,607.76,20.80,0000 0000 0000 0000 000000
2015-12-29 06:47:33,0.11,2.12,0.00,18.80,22.02,25.72,14.93,51.37,1022.00,2054.20,2792.15,2592.10,2897.86,600.28,608.10,20.85,0000 0000 0000 0000 000000
2015-12-29 06:52:35,0.12,2.12,0.00,18.84,22.02,25.70,14.86,51.27,1022.02,2054.07,2789.96,2590.49,2896.09,600.01,607.68,20.90,0000 0000 0000 0000 000000
2015-12-29 06:57:36,0.13,2.13,0.00,18.87,22.04,25.76,14.84,51.21,1022.00,2054.06,2787.79,2588.92,2894.29,599.97,607.63,20.95,0000 0000 0000 0000 000000
2015-12-29 07:02:37,0.13,2.14,0.00,18.89,22.04,25.75,14.80,51.37,1021.59,2054.03,2785.51,2587.31,2892.41,599.87,607.25,21.00,0000 0000 0000 0000 000000
2015-12-29 07:07:39,0.16,2.14,0.00,18.86,22.05,25.73,14.74,51.49,1021.31,2054.03,2782.92,2585.47,2890.38,599.80,607.05,21.05,0000 0000 0000 0000 000000
2015-12-29 07:12:40,0.19,2.15,0.00,18.87,22.07,25.72,14.78,51.58,1021.38,2054.05,2780.01,2583.19,2887.95,599.94,607.32,21.10,0000 0000 0000 0000 000000
2015-12-29 07:17:41,0.16,2.16,0.00,18.87,22.07,25.77,14.91,51.49,1021.56,2054.02,2777.25,2581.15,2885.62,600.31,607.79,21.15,0000 0000 0000 0000 000000
2015-12-29 07:22:42,0.14,2.17,0.00,18.90,22.09,25.79,14.79,51.36,1021.71,2054.00,2774.82,2579.36,2883.55,599.86,607.27,21.20,0000 0000 0000 0000 000000
2015-12-29 07:27:43,0.22,2.18,0.00,18.91,22.09,25.78,14.75,51.33,1021.99,2054.00,2772.01,2577.09,2881.08,599.96,607.53,21.25,0000 0000 0000 0000 000000
2015-12-29 07:32:45,0.16,2.19,0.00,18.92,22.10,25.82,14.86,51.63,1021.95,2054.00,2769.16,2574.76,2878.69,600.13,607.51,21.30,0000 0000 0000 0000 000000
2015-12-29 07:37:46,0.15,2.20,0.00,18.91,22.12,25.82,14.96,51.89,1021.74,2054.00,2766.60,2572.98,2876.71,600.06,607.40,21.35,0000 0000 0000 0000 000000
2015-12-29 07:42:47,0.17,2.20,0.00,18.90,22.12,25.81,14.86,51.88,1021.56,2054.00,2763.95,2571.06,2874.45,600.09,607.44,21.40,0000 0000 0000 0000 000000
2015-12-29 07:47:48,0.18,2.21,0.00,18.90,22.12,25.86,14.80,51.94,1021.84,2054.00,2761.20,2569.00,2872.14,599.92,607.42,21.45,0000 0000 0000 0000 000000
2015-12-29 07:52:50,0.15,2.22,0.00,18.90,22.12,25.85,14.80,51.59,1022.29,2053.99,2758.55,2566.99,2869.92,599.80,607.64,21.50,0000 0000 0000 0000 000000
2015-12-29 07:57:51,0.14,2.23,0.00,18.89,22.14,25.85,14.78,51.53,1022.40,2053.98,2756.20,2565.23,2867.95,599.74,607.62,21.55,0000 0000 0000 0000 000000
2015-12-29 08:02:52,0.14,2.24,0.00,18.92,22.14,25.86,14.84,51.45,1022.48,2053.99,2754.05,2563.59,2866.03,600.11,607.97,21.60,0000 0000 0000 0000 000000
2015-12-29 08:07:53,0.11,2.24,0.00,18.96,22.14,25.90,14.96,51.49,1022.48,2053.96,2752.12,2562.10,2864.29,600.36,608.16,21.65,0000 0000 0000 0000 000000
2015-12-29 08:12:55,0.12,2.25,0.00,18.95,22.15,25.90,14.98,51.59,1022.20,2053.95,2750.35,2560.71,2862.69,600.34,607.77,21.70,0000 0000 0000 0000 000000
2015-12-29 08:17:56,0.12,2.26,0.00,18.93,22.17,25.87,14.95,51.66,1022.16,2053.91,2748.36,2559.20,2860.87,600.40,608.08,21.75,0000 0000 0000 0000 000000
2015-12-29 08:22:57,0.09,2.26,0.00,18.97,22.17,25.92,14.89,51.38,1022.51,2053.87,2746.61,2558.01,2859.37,599.98,607.74,21.80,0000 0000 0000 0000 000000
2015-12-29 08:27:58,0.12,2.27,0.00,18.98,22.17,25.91,14.79,51.48,1022.49,2053.90,2744.92,2556.79,2857.91,599.92,607.65,21.85,0000 0000 0000 0000 000000
2015-12-29 08:33:00,0.11,2.27,0.00,18.97,22.18,25.96,14.87,51.48,1022.43,2053.87,2743.20,2555.54,2856.48,599.87,607.56,21.90,0000 0000 0000 0000 000000
2015-12-29 08:38:01,0.10,2.28,0.00,18.97,22.19,25.92,14.83,51.48,1022.04,2053.81,2741.37,2554.20,2854.92,599.88,607.47,21.95,0000 0000 0000 0000 000000
2015-12-29 08:43:03,0.11,2.28,0.00,18.96,22.19,25.91,14.86,51.42,1022.00,2053.80,2739.60,2552.90,2853.45,600.06,607.54,22.00,0000 0000 0000 0000 000000
2015-12-29 08:48:04,0.08,2.29,0.00,18.97,22.19,25.96,14.85,51.36,1022.36,2053.43,2737.71,2551.58,2851.85,599.69,607.30,22.05,0000 0000 0000 0000 000000
2015-12-29 08:53:05,0.12,2.29,0.00,18.98,22.19,25.97,14.82,51.58,1022.47,2053.35,2735.68,2550.09,2850.18,599.74,607.63,22.10,0000 0000 0000 0000 000000
2015-12-29 08:58:06,0.14,2.30,0.00,18.97,22.20,25.95,14.98,51.71,1022.46,2053.56,2733.72,2548.58,2848.41,600.12,607.79,22.15,0000 0000 0000 0000 000000
2015-12-29 09:03:08,0.10,2.31,0.00,18.97,22.20,26.01,14.83,51.45,1022.48,2053.34,2731.85,2547.18,2846.71,600.11,607.82,22.20,0000 0000 0000 0000 000000
2015-12-29 09:08:09,0.11,2.31,0.00,18.97,22.20,26.00,14.84,51.33,1022.48,2053.12,2729.91,2545.72,2845.00,599.94,607.66,22.25,0000 0000 0000 0000 000000
2015-12-29 09:13:11,0.11,2.32,0.00,18.99,22.20,26.04,14.82,51.29,1022.48,2053.07,2727.87,2544.27,2843.44,599.75,607.48,22.30,0000 0000 0000 0000 000000
2015-12-29 09:18:12,0.14,2.32,0.00,19.00,22.20,26.00,14.87,51.36,1022.41,2053.06,2725.82,2542.76,2841.74,599.80,607.44,22.35,0000 0000 0000 0000 000000
2015-12-29 09:23:13,0.11,2.33,0.00,18.98,22.20,25.96,14.84,51.45,1022.47,2053.07,2723.78,2541.33,2840.13,600.10,607.82,22.40,0000 0000 0000 0000 000000
2015-12-29 09:28:14,0.13,2.34,0.00,18.97,22.20,25.99,14.77,51.27,1022.36,2053.10,2721.76,2539.86,2838.50,600.06,607.67,22.45,0000 0000 0000 0000 000000
2015-12-29 09:33:15,0.13,2.34,0.00,18.96,22.22,25.97,14.87,51.48,1022.07,2053.07,2719.76,2538.30,2836.69,600.16,607.78,22.50,0000 0000 0000 0000 000000
2015-12-29 09:38:16,0.19,2.35,0.00,18.97,22.22,25.97,14.88,51.56,1021.66,2053.10,2717.31,2536.35,2834.41,600.12,607.33,22.55,0000 0000 0000 0000 000000
2015-12-29 09:43:18,0.16,2.36,0.00,18.96,22.22,25.95,14.84,51.29,1021.68,2053.12,2714.85,2534.29,2832.11,600.02,607.32,22.60,0000 0000 0000 0000 000000
2015-12-29 09:48:19,0.14,2.37,0.00,18.96,22.22,25.97,14.82,51.45,1021.89,2053.14,2712.72,2532.68,2830.30,600.19,607.62,22.65,0000 0000 0000 0000 000000
2015-12-29 09:53:20,0.18,2.38,0.00,18.95,22.24,26.01,14.88,51.41,1021.99,2053.16,2710.31,2530.63,2828.00,599.81,607.30,22.70,0000 0000 0000 0000 000000
2015-12-29 09:58:22,0.16,2.39,0.00,18.97,22.24,26.02,14.88,51.40,1021.98,2053.11,2707.81,2528.64,2825.68,600.08,607.48,22.75,0000 0000 0000 0000 000000
2015-12-29 10:03:23,0.17,2.40,0.00,19.00,22.24,26.03,14.88,51.54,1021.99,2053.08,2705.33,2526.68,2823.41,600.25,607.65,22.80,0000 0000 0000 0000 000000
2015-12-29 10:08:24,0.13,2.40,0.00,19.03,22.24,26.03,14.90,51.71,1021.82,2053.06,2703.21,2524.98,2821.38,600.08,607.12,22.85,0000 0000 0000 0000 000000
2015-12-29 10:13:25,0.13,2.41,0.00,19.04,22.26,26.04,15.01,51.69,1021.57,2053.06,2701.42,2523.58,2819.71,600.37,607.44,22.90,0000 0000 0000 0000 000000
2015-12-29 10:18:27,0.13,2.42,0.00,19.03,22.27,26.04,14.92,51.60,1021.50,2053.06,2699.54,2522.04,2818.01,600.05,607.11,22.95,0000 0000 0000 0000 000000
2015-12-29 10:23:28,0.16,2.42,0.00,19.03,22.27,26.02,14.74,51.74,1021.50,2053.04,2697.34,2520.22,2815.92,599.76,606.75,23.00,0000 0000 0000 0000 000000
2015-12-29 10:28:30,0.16,2.43,0.00,19.02,22.28,26.02,14.90,51.98,1021.54,2053.03,2695.00,2518.23,2813.62,600.18,607.21,23.05,0000 0000 0000 0000 000000
2015-12-29 10:33:31,0.13,2.44,0.00,19.00,22.29,26.05,14.88,51.77,1021.56,2053.02,2693.08,2516.59,2811.76,599.97,607.16,23.11,0000 0000 0000 0000 000000
2015-12-29 10:38:32,0.13,2.45,0.00,18.99,22.29,26.07,14.83,51.59,1021.51,2053.01,2691.01,2515.14,2810.12,599.93,607.05,23.16,0000 0000 0000 0000 000000
2015-12-29 10:43:34,0.11,2.45,0.00,18.99,22.29,26.16,14.95,51.63,1021.63,2053.01,2689.29,2513.76,2808.59,600.25,607.44,23.21,0000 0000 0000 0000 000000
2015-12-29 10:48:35,0.12,2.46,0.00,19.02,22.29,26.10,14.88,51.47,1021.87,2053.01,2687.61,2512.43,2806.96,599.87,607.01,23.26,0000 0000 0000 0000 000000
2015-12-29 10:53:36,0.10,2.46,0.00,19.07,22.30,26.09,14.90,51.51,1021.59,2053.02,2685.93,2511.18,2805.58,599.98,606.93,23.31,0000 0000 0000 0000 000000
2015-12-29 10:58:38,0.12,2.47,0.00,19.09,22.31,26.10,14.77,51.52,1021.51,2053.01,2684.18,2509.68,2803.84,599.85,606.77,23.36,0000 0000 0000 0000 000000
2015-12-29 11:03:39,0.11,2.47,0.00,19.07,22.32,26.04,14.84,51.62,1021.49,2053.02,2682.60,2508.49,2802.50,599.83,606.78,23.41,0000 0000 0000 0000 000000
2015-12-29 11:08:40,0.08,2.48,0.00,19.07,22.32,26.04,14.85,51.64,1021.44,2053.00,2681.16,2507.41,2801.33,600.00,606.95,23.46,0000 0000 0000 0000 000000
2015-12-29 11:13:41,0.09,2.48,0.00,19.05,22.33,26.09,14.84,51.73,1021.30,2053.00,2679.71,2506.37,2800.05,599.81,606.60,23.51,0000 0000 0000 0000 000000
2015-12-29 11:18:42,0.09,2.49,0.00,19.05,22.34,26.16,14.83,51.81,1021.44,2053.01,2678.40,2505.31,2798.86,599.52,606.47,23.56,0000 0000 0000 0000 000000
2015-12-29 11:23:44,0.10,2.49,0.00,19.07,22.34,26.08,14.94,51.93,1021.49,2053.00,2676.84,2504.21,2797.60,600.13,607.15,23.61,0000 0000 0000 0000 000000
2015-12-29 11:28:45,0.09,2.50,0.00,19.07,22.35,26.12,14.83,51.83,1021.42,2053.00,2675.40,2503.09,2796.23,600.03,606.85,23.66,0000 0000 0000 0000 000000
2015-12-29 11:33:46,0.09,2.50,0.00,19.09,22.37,26.07,14.88,51.74,1021.38,2053.00,2673.83,2502.03,2794.95,599.87,606.71,23.71,0000 0000 0000 0000 000000
2015-12-29 11:38:47,0.10,2.51,0.00,19.14,22.37,26.09,14.96,51.74,1021.47,2053.00,2672.36,2500.92,2793.74,600.55,607.34,23.76,0000 0000 0000 0000 000000
2015-12-29 11:43:48,0.10,2.51,0.00,19.17,22.38,26.09,14.85,51.71,1021.50,2053.00,2670.92,2499.78,2792.44,600.00,606.75,23.81,0000 0000 0000 0000 000000
2015-12-29 11:48:49,0.09,2.52,0.00,19.19,22.39,26.09,14.77,51.52,1021.50,2053.00,2669.42,2498.75,2791.14,600.09,606.81,23.86,0000 0000 0000 0000 000000
2015-12-29 11:53:51,0.11,2.53,0.00,19.22,22.39,26.12,14.75,51.57,1021.50,2053.00,2668.07,2497.03,2789.94,599.83,606.58,23.91,0000 0000 0000 0000 000000
2015-12-29 11:58:52,0.12,2.53,0.00,19.21,22.41,26.08,14.88,51.62,1021.49,2052.99,2666.48,2495.64,2788.49,599.76,606.50,23.96,0000 0000 0000 0000 000000
2015-12-29 12:03:53,0.05,2.53,0.00,19.22,22.42,26.11,14.84,51.57,1021.50,2052.98,2665.42,2494.92,2787.43,600.33,606.97,24.01,0000 0000 0000 0000 000000
2015-12-29 12:08:54,0.20,2.54,0.00,19.25,22.43,26.12,14.83,51.64,1021.51,2052.98,2663.70,2493.21,2785.75,600.35,606.89,24.06,0000 0000 0000 0000 000000
2015-12-29 12:13:56,0.11,2.55,0.00,19.28,22.44,26.13,14.88,51.58,1021.51,2052.97,2661.45,2491.03,2783.47,600.09,606.61,24.11,0000 0000 0000 0000 000000
2015-12-29 12:18:57,0.08,2.56,0.00,19.29,22.46,26.16,14.79,51.64,1021.50,2052.97,2660.31,2490.13,2782.35,599.92,606.41,24.16,0000 0000 0000 0000 000000
2015-12-29 12:23:59,0.08,2.56,0.00,19.30,22.47,26.19,14.85,51.64,1021.50,2052.96,2659.11,2489.16,2781.22,599.78,606.17,24.21,0000 0000 0000 0000 000000
2015-12-29 12:29:00,0.07,2.56,0.00,19.32,22.49,26.21,14.87,51.74,1021.50,2052.92,2657.95,2488.43,2780.38,600.07,606.46,24.26,0000 0000 0000 0000 000000
2015-12-29 12:34:01,0.08,2.57,0.00,19.30,22.50,26.21,14.88,51.87,1021.46,2052.82,2656.56,2487.34,2779.14,599.88,606.45,24.31,0000 0000 0000 0000 000000
2015-12-29 12:39:03,0.07,2.57,0.00,19.29,22.52,26.19,14.86,51.89,1021.50,2052.84,2655.41,2486.43,2778.11,599.92,606.42,24.36,0000 0000 0000 0000 000000
2015-12-29 12:44:04,0.05,2.57,0.00,19.30,22.52,26.24,14.81,51.83,1021.50,2052.64,2654.19,2485.53,2777.10,599.86,606.28,24.41,0000 0000 0000 0000 000000
2015-12-29 12:49:05,0.07,2.58,0.00,19.34,22.54,26.27,14.83,51.79,1021.52,2052.49,2652.85,2484.60,2776.02,600.06,606.56,24.46,0000 0000 0000 0000 000000
2015-12-29 12:54:07,0.06,2.58,0.00,19.37,22.54,26.25,14.80,51.63,1021.50,2052.29,2651.66,2483.68,2774.99,600.19,606.42,24.51,0000 0000 0000 0000 000000